ANA93 RJTT-RJBB

Flight info

Callsign ANA93
Flight time 0h 49m
Altitude 24000
Route LAXAS Y56 TOHME Y54 KOHWA Y544 DUBKA
Aircraft B772/H-SDE2E3FGHIJ5LORVWXY/LB1D1

Departure

Time 2026-05-05 03:55
Airport Tokyo Haneda International Airport (RJTT)

Arrival

Time 2026-05-05 04:44
Airport Kansai International Airport (RJBB)
Time Latitude Longitude Altitude Speed Heading
2026-05-05 03:25 35.55269 139.78879 32 ft 0 kts 240°
2026-05-05 03:40 35.55271 139.78883 32 ft 3 kts 240°
2026-05-05 03:40 35.55284 139.78911 31 ft 4 kts 240°
2026-05-05 03:40 35.55295 139.78935 31 ft 4 kts 254°
2026-05-05 03:41 35.55294 139.78963 32 ft 4 kts 309°
2026-05-05 03:41 35.55274 139.78983 32 ft 3 kts 330°
2026-05-05 03:41 35.55270 139.78985 32 ft 0 kts 330°
2026-05-05 03:46 35.55273 139.78983 32 ft 4 kts 330°
2026-05-05 03:46 35.55328 139.78945 32 ft 10 kts 330°
2026-05-05 03:47 35.55393 139.78939 32 ft 10 kts 30°
2026-05-05 03:47 35.55442 139.79026 31 ft 13 kts 60°
2026-05-05 03:47 35.55405 139.79113 31 ft 16 kts 149°
2026-05-05 03:47 35.55286 139.79197 31 ft 23 kts 150°
2026-05-05 03:48 35.55124 139.79313 29 ft 30 kts 150°
2026-05-05 03:48 35.54945 139.79440 31 ft 30 kts 150°
2026-05-05 03:48 35.54766 139.79567 29 ft 30 kts 150°
2026-05-05 03:48 35.54595 139.79688 28 ft 26 kts 150°
2026-05-05 03:49 35.54447 139.79793 26 ft 25 kts 150°
2026-05-05 03:49 35.54298 139.79899 27 ft 25 kts 150°
2026-05-05 03:49 35.54148 139.80005 30 ft 25 kts 150°
2026-05-05 03:49 35.54003 139.80108 28 ft 22 kts 150°
2026-05-05 03:50 35.53894 139.80185 30 ft 11 kts 150°
2026-05-05 03:50 35.53822 139.80183 31 ft 11 kts 206°
2026-05-05 03:50 35.53745 139.80181 30 ft 12 kts 173°
2026-05-05 03:50 35.53636 139.80204 30 ft 17 kts 156°
2026-05-05 03:51 35.53534 139.80277 34 ft 17 kts 150°
2026-05-05 03:51 35.53409 139.80365 39 ft 24 kts 150°
2026-05-05 03:51 35.53252 139.80476 46 ft 28 kts 150°
2026-05-05 03:51 35.53108 139.80578 52 ft 16 kts 150°
2026-05-05 03:52 35.53025 139.80595 53 ft 12 kts 214°
2026-05-05 03:52 35.52938 139.80501 50 ft 24 kts 222°
2026-05-05 03:52 35.52798 139.80343 53 ft 28 kts 223°
2026-05-05 03:52 35.52660 139.80189 49 ft 22 kts 223°
2026-05-05 03:53 35.52579 139.80143 50 ft 12 kts 159°
2026-05-05 03:53 35.52519 139.80215 50 ft 13 kts 133°
2026-05-05 03:53 35.52447 139.80308 55 ft 14 kts 133°
2026-05-05 03:53 35.52425 139.80372 58 ft 6 kts 66°
2026-05-05 03:54 35.52438 139.80390 58 ft 1 kts 42°
2026-05-05 03:54 35.52525 139.80488 49 ft 45 kts 42°
2026-05-05 03:54 35.52981 139.80998 48 ft 131 kts 42°
2026-05-05 03:54 35.53810 139.81918 463 ft 171 kts 43°
2026-05-05 03:55 35.54672 139.82848 1771 ft 160 kts 44°
2026-05-05 03:55 35.55534 139.83802 2412 ft 178 kts 44°
2026-05-05 03:55 35.56335 139.85047 2620 ft 203 kts 70°
2026-05-05 03:55 35.56329 139.86858 2835 ft 229 kts 106°
2026-05-05 03:56 35.55765 139.88795 3098 ft 251 kts 107°
2026-05-05 03:56 35.55218 139.90871 3817 ft 259 kts 105°
2026-05-05 03:56 35.54571 139.92955 4453 ft 267 kts 120°
2026-05-05 03:56 35.53207 139.94526 5156 ft 275 kts 154°
2026-05-05 03:57 35.51345 139.94977 5987 ft 276 kts 186°
2026-05-05 03:57 35.49471 139.94567 6667 ft 277 kts 193°
2026-05-05 03:57 35.47585 139.94103 7445 ft 281 kts 193°
2026-05-05 03:57 35.45718 139.93482 8174 ft 279 kts 208°
2026-05-05 03:58 35.44235 139.91963 8814 ft 278 kts 230°
2026-05-05 03:58 35.42932 139.90172 9514 ft 284 kts 229°
2026-05-05 03:58 35.41639 139.88436 10325 ft 288 kts 230°
2026-05-05 03:58 35.40238 139.86559 10682 ft 313 kts 231°
2026-05-05 03:59 35.38703 139.84498 10900 ft 342 kts 231°
2026-05-05 03:59 35.37024 139.82256 11230 ft 369 kts 231°
2026-05-05 03:59 35.35276 139.79936 12020 ft 381 kts 232°
2026-05-05 03:59 35.33454 139.77524 13048 ft 387 kts 232°
2026-05-05 04:00 35.31632 139.75115 14385 ft 386 kts 232°
2026-05-05 04:00 35.29724 139.72778 15477 ft 393 kts 228°
2026-05-05 04:00 35.27632 139.70573 16509 ft 398 kts 225°
2026-05-05 04:00 35.25479 139.68412 17493 ft 402 kts 225°
2026-05-05 04:01 35.23308 139.66236 18475 ft 405 kts 226°
2026-05-05 04:01 35.21136 139.64027 19444 ft 406 kts 226°
2026-05-05 04:01 35.19005 139.61833 20448 ft 405 kts 226°
2026-05-05 04:01 35.16863 139.59610 21431 ft 404 kts 227°
2026-05-05 04:02 35.14726 139.57382 22361 ft 404 kts 227°
2026-05-05 04:02 35.12588 139.55155 23224 ft 404 kts 227°
2026-05-05 04:02 35.10447 139.52928 24001 ft 402 kts 227°
2026-05-05 04:02 35.08530 139.50535 24190 ft 396 kts 239°
2026-05-05 04:03 35.07155 139.47582 24206 ft 406 kts 250°
2026-05-05 04:03 35.06342 139.44271 24209 ft 408 kts 260°
2026-05-05 04:03 35.05835 139.40861 24208 ft 409 kts 260°
2026-05-05 04:03 35.05320 139.37488 24200 ft 409 kts 260°
2026-05-05 04:04 35.04777 139.34081 24206 ft 409 kts 259°
2026-05-05 04:04 35.04218 139.30676 24202 ft 409 kts 259°
2026-05-05 04:04 35.03649 139.27275 24203 ft 409 kts 259°
2026-05-05 04:04 35.03079 139.23878 24201 ft 409 kts 259°
2026-05-05 04:05 35.02507 139.20474 24204 ft 410 kts 259°
2026-05-05 04:05 35.01934 139.17068 24201 ft 410 kts 259°
2026-05-05 04:05 35.01359 139.13659 24204 ft 411 kts 259°
2026-05-05 04:05 35.00791 139.10287 24204 ft 411 kts 259°
2026-05-05 04:06 35.00216 139.06875 24205 ft 411 kts 259°
2026-05-05 04:06 34.99638 139.03465 24189 ft 410 kts 259°
2026-05-05 04:06 34.99066 139.00054 24207 ft 410 kts 260°
2026-05-05 04:06 34.98659 138.96612 24199 ft 411 kts 265°
2026-05-05 04:07 34.98498 138.93131 24198 ft 411 kts 267°
2026-05-05 04:07 34.98345 138.89648 24197 ft 411 kts 266°
2026-05-05 04:07 34.98167 138.86168 24201 ft 412 kts 266°
2026-05-05 04:07 34.97980 138.82684 24202 ft 413 kts 266°
2026-05-05 04:08 34.97793 138.79232 24199 ft 414 kts 266°
2026-05-05 04:08 34.97600 138.75726 24191 ft 414 kts 266°
2026-05-05 04:08 34.97410 138.72219 24193 ft 415 kts 266°
2026-05-05 04:08 34.97220 138.68722 24194 ft 414 kts 266°
2026-05-05 04:09 34.97033 138.65219 24192 ft 414 kts 266°
2026-05-05 04:09 34.96845 138.61714 24191 ft 414 kts 266°
2026-05-05 04:09 34.96655 138.58209 24195 ft 414 kts 266°
2026-05-05 04:09 34.96463 138.54708 24194 ft 414 kts 266°
2026-05-05 04:10 34.96273 138.51258 24192 ft 413 kts 266°
2026-05-05 04:10 34.96080 138.47759 24189 ft 414 kts 266°
2026-05-05 04:10 34.95885 138.44255 24188 ft 415 kts 266°
2026-05-05 04:10 34.95688 138.40736 24184 ft 416 kts 266°
2026-05-05 04:11 34.95491 138.37226 24182 ft 415 kts 266°
2026-05-05 04:11 34.95293 138.33712 24178 ft 415 kts 266°
2026-05-05 04:11 34.95096 138.30208 24176 ft 414 kts 266°
2026-05-05 04:11 34.94899 138.26704 24183 ft 415 kts 266°
2026-05-05 04:12 34.94695 138.23193 24183 ft 415 kts 266°
2026-05-05 04:12 34.94491 138.19694 24184 ft 415 kts 266°
2026-05-05 04:12 34.94291 138.16232 24184 ft 414 kts 266°
2026-05-05 04:12 34.94088 138.12726 24179 ft 416 kts 266°
2026-05-05 04:13 34.93883 138.09206 24184 ft 416 kts 266°
2026-05-05 04:13 34.93675 138.05686 24178 ft 417 kts 266°
2026-05-05 04:13 34.93465 138.02164 24156 ft 417 kts 266°
2026-05-05 04:13 34.93256 137.98638 24194 ft 416 kts 266°
2026-05-05 04:14 34.93045 137.95115 24180 ft 418 kts 266°
2026-05-05 04:14 34.92835 137.91618 24183 ft 420 kts 266°
2026-05-05 04:14 34.92626 137.88068 24187 ft 421 kts 266°
2026-05-05 04:14 34.92413 137.84506 24190 ft 422 kts 266°
2026-05-05 04:15 34.92194 137.80931 24190 ft 423 kts 266°
2026-05-05 04:15 34.91973 137.77365 24195 ft 422 kts 266°
2026-05-05 04:15 34.91759 137.73798 24191 ft 422 kts 266°
2026-05-05 04:15 34.91442 137.70248 24194 ft 422 kts 262°
2026-05-05 04:16 34.90867 137.66747 24186 ft 422 kts 258°
2026-05-05 04:16 34.90106 137.63287 24185 ft 423 kts 254°
2026-05-05 04:16 34.89109 137.59913 24193 ft 424 kts 251°
2026-05-05 04:16 34.88087 137.56592 24186 ft 424 kts 252°
2026-05-05 04:17 34.87067 137.53223 24183 ft 424 kts 252°
2026-05-05 04:17 34.86054 137.49852 24185 ft 424 kts 252°
2026-05-05 04:17 34.85046 137.46482 24187 ft 424 kts 252°
2026-05-05 04:17 34.84062 137.43092 24185 ft 424 kts 252°
2026-05-05 04:18 34.83095 137.39701 24182 ft 424 kts 253°
2026-05-05 04:18 34.82135 137.36314 24183 ft 423 kts 253°
2026-05-05 04:18 34.81185 137.32971 24186 ft 424 kts 252°
2026-05-05 04:18 34.80217 137.29583 24184 ft 424 kts 252°
2026-05-05 04:19 34.79248 137.26204 24183 ft 424 kts 252°
2026-05-05 04:19 34.78276 137.22821 24182 ft 423 kts 252°
2026-05-05 04:19 34.77302 137.19442 24184 ft 423 kts 252°
2026-05-05 04:19 34.76329 137.16064 24186 ft 423 kts 252°
2026-05-05 04:20 34.75354 137.12685 24185 ft 424 kts 252°
2026-05-05 04:20 34.74379 137.09311 24185 ft 424 kts 252°
2026-05-05 04:20 34.73400 137.05924 24186 ft 425 kts 252°
2026-05-05 04:20 34.72418 137.02532 24186 ft 425 kts 252°
2026-05-05 04:21 34.71449 136.99194 24184 ft 425 kts 252°
2026-05-05 04:21 34.70417 136.95832 24188 ft 425 kts 250°
2026-05-05 04:21 34.69156 136.92579 24188 ft 426 kts 245°
2026-05-05 04:21 34.67769 136.89395 24186 ft 426 kts 245°
2026-05-05 04:22 34.66398 136.86203 24183 ft 426 kts 245°
2026-05-05 04:22 34.65036 136.83008 24185 ft 426 kts 245°
2026-05-05 04:22 34.63679 136.79814 24185 ft 426 kts 245°
2026-05-05 04:22 34.62321 136.76615 24185 ft 426 kts 245°
2026-05-05 04:23 34.60976 136.73456 24185 ft 427 kts 245°
2026-05-05 04:23 34.59617 136.70264 24185 ft 426 kts 245°
2026-05-05 04:23 34.58258 136.67074 24184 ft 426 kts 245°
2026-05-05 04:23 34.56895 136.63878 24185 ft 426 kts 245°
2026-05-05 04:24 34.55533 136.60687 24184 ft 426 kts 245°
2026-05-05 04:24 34.54173 136.57496 24182 ft 426 kts 245°
2026-05-05 04:24 34.52812 136.54312 24185 ft 425 kts 245°
2026-05-05 04:25 34.50101 136.47990 24183 ft 425 kts 245°
2026-05-05 04:25 34.48739 136.44817 24181 ft 425 kts 245°
2026-05-05 04:25 34.47375 136.41639 24177 ft 425 kts 245°
2026-05-05 04:25 34.46030 136.38507 24154 ft 410 kts 245°
2026-05-05 04:26 34.44734 136.35493 23682 ft 401 kts 245°
2026-05-05 04:26 34.43452 136.32516 22943 ft 397 kts 245°
2026-05-05 04:26 34.42182 136.29565 22176 ft 393 kts 244°
2026-05-05 04:26 34.40937 136.26688 21436 ft 389 kts 244°
2026-05-05 04:27 34.39696 136.23804 20708 ft 385 kts 244°
2026-05-05 04:27 34.38457 136.20931 19998 ft 384 kts 244°
2026-05-05 04:27 34.37223 136.18075 19295 ft 382 kts 244°
2026-05-05 04:27 34.36023 136.15224 18621 ft 379 kts 247°
2026-05-05 04:28 34.35062 136.12259 18057 ft 376 kts 253°
2026-05-05 04:28 34.34356 136.09230 17713 ft 376 kts 258°
2026-05-05 04:28 34.33806 136.06086 17372 ft 386 kts 259°
2026-05-05 04:28 34.33246 136.02905 17008 ft 387 kts 259°
2026-05-05 04:29 34.32681 135.99730 16676 ft 385 kts 259°
2026-05-05 04:29 34.32123 135.96619 16314 ft 384 kts 259°
2026-05-05 04:29 34.31554 135.93463 15962 ft 383 kts 259°
2026-05-05 04:29 34.30986 135.90326 15617 ft 382 kts 259°
2026-05-05 04:30 34.30419 135.87191 15295 ft 382 kts 259°
2026-05-05 04:30 34.29848 135.84054 14914 ft 382 kts 259°
2026-05-05 04:30 34.29278 135.80920 14577 ft 381 kts 259°
2026-05-05 04:30 34.28709 135.77795 14225 ft 380 kts 259°
2026-05-05 04:31 34.28139 135.74676 13887 ft 380 kts 259°
2026-05-05 04:31 34.27574 135.71599 13413 ft 380 kts 259°
2026-05-05 04:31 34.27006 135.68495 13032 ft 374 kts 259°
2026-05-05 04:31 34.26447 135.65447 12688 ft 370 kts 259°
2026-05-05 04:32 34.25892 135.62416 12347 ft 369 kts 259°
2026-05-05 04:32 34.25337 135.59399 12012 ft 368 kts 259°
2026-05-05 04:32 34.24781 135.56377 11672 ft 368 kts 259°
2026-05-05 04:32 34.24238 135.53443 11339 ft 343 kts 259°
2026-05-05 04:33 34.23738 135.50738 11024 ft 318 kts 259°
2026-05-05 04:33 34.23275 135.48228 10752 ft 295 kts 259°
2026-05-05 04:33 34.22843 135.45888 10502 ft 285 kts 258°
2026-05-05 04:33 34.22413 135.43569 10250 ft 281 kts 258°
2026-05-05 04:34 34.21987 135.41281 10003 ft 277 kts 258°
2026-05-05 04:34 34.21567 135.39013 9699 ft 276 kts 258°
2026-05-05 04:34 34.21148 135.36756 9423 ft 275 kts 258°
2026-05-05 04:34 34.20728 135.34502 9098 ft 275 kts 258°
2026-05-05 04:35 34.20310 135.32255 8808 ft 273 kts 257°
2026-05-05 04:35 34.19892 135.30015 8521 ft 273 kts 257°
2026-05-05 04:35 34.19476 135.27787 8227 ft 272 kts 257°
2026-05-05 04:35 34.19060 135.25562 7937 ft 271 kts 257°
2026-05-05 04:36 34.18649 135.23368 7639 ft 271 kts 258°
2026-05-05 04:36 34.18235 135.21153 7344 ft 270 kts 257°
2026-05-05 04:36 34.17818 135.18947 7046 ft 269 kts 258°
2026-05-05 04:36 34.17410 135.16751 6759 ft 268 kts 258°
2026-05-05 04:37 34.17009 135.14561 6453 ft 263 kts 261°
2026-05-05 04:37 34.17105 135.12408 6177 ft 259 kts 291°
2026-05-05 04:37 34.18083 135.10592 5912 ft 261 kts 316°
2026-05-05 04:37 34.19482 135.09188 5636 ft 261 kts 322°
2026-05-05 04:38 34.20881 135.07840 5532 ft 252 kts 322°
2026-05-05 04:38 34.22212 135.06546 5280 ft 249 kts 322°
2026-05-05 04:38 34.23582 135.05212 4841 ft 255 kts 322°
2026-05-05 04:38 34.24957 135.03872 4536 ft 253 kts 322°
2026-05-05 04:39 34.26374 135.02685 4229 ft 242 kts 340°
2026-05-05 04:39 34.27989 135.02600 3973 ft 234 kts 20°
2026-05-05 04:39 34.29214 135.03806 3743 ft 230 kts 59°
2026-05-05 04:39 34.29912 135.05472 3517 ft 216 kts 53°
2026-05-05 04:40 34.30866 135.06793 3296 ft 208 kts 46°
2026-05-05 04:40 34.31788 135.08127 3060 ft 206 kts 50°
2026-05-05 04:40 34.32672 135.09472 2827 ft 203 kts 50°
2026-05-05 04:40 34.33548 135.10781 2549 ft 197 kts 51°
2026-05-05 04:41 34.34405 135.12050 2269 ft 192 kts 53°
2026-05-05 04:41 34.35233 135.13279 2031 ft 182 kts 53°
2026-05-05 04:41 34.35996 135.14413 1780 ft 166 kts 49°
2026-05-05 04:41 34.36687 135.15444 1575 ft 148 kts 47°
2026-05-05 04:42 34.37312 135.16370 1376 ft 137 kts 47°
2026-05-05 04:42 34.37910 135.17255 1213 ft 139 kts 46°
2026-05-05 04:42 34.38520 135.18160 1030 ft 138 kts 47°
2026-05-05 04:42 34.39126 135.19060 833 ft 137 kts 47°
2026-05-05 04:43 34.39727 135.19951 666 ft 137 kts 47°
2026-05-05 04:43 34.40329 135.20845 476 ft 137 kts 49°
2026-05-05 04:43 34.40927 135.21739 304 ft 137 kts 47°
2026-05-05 04:43 34.41533 135.22621 120 ft 137 kts 49°
2026-05-05 04:44 34.42130 135.23510 24 ft 130 kts 49°
2026-05-05 04:44 34.42599 135.24209 19 ft 83 kts 51°
2026-05-05 04:44 34.42855 135.24592 18 ft 42 kts 51°
2026-05-05 04:44 34.43010 135.24788 21 ft 25 kts 33°
2026-05-05 04:45 34.43126 135.24857 19 ft 16 kts 21°
2026-05-05 04:45 34.43207 135.24882 23 ft 11 kts 347°
2026-05-05 04:45 34.43230 135.24809 23 ft 10 kts 246°
2026-05-05 04:45 34.43190 135.24745 28 ft 9 kts 231°
2026-05-05 04:46 34.43152 135.24688 24 ft 9 kts 231°
2026-05-05 04:46 34.43108 135.24622 23 ft 10 kts 231°
2026-05-05 04:46 34.43067 135.24552 26 ft 10 kts 251°
2026-05-05 04:46 34.43112 135.24459 23 ft 14 kts 321°
2026-05-05 04:47 34.43154 135.24401 26 ft 9 kts 284°
2026-05-05 04:47 34.43130 135.24336 28 ft 8 kts 231°
2026-05-05 04:47 34.43127 135.24282 26 ft 7 kts 305°
2026-05-05 04:47 34.43155 135.24252 23 ft 3 kts 320°
2026-05-05 04:48 34.43166 135.24241 23 ft 1 kts 321°
2026-05-05 04:48 34.43168 135.24238 27 ft 0 kts 321°